Zurück zum Katalog

IRIDIUM 33 DEB

AktivPO
NORAD 35618·DEBRIS·🇺🇸 United States

Gestartet Sep 14, 1997 von Baikonur Cosmodrome

Loading…

Nächste Überflüge (nächste 24 Stunden)

TLE

AlterndSource: Space-Track

Epoche: Sep 11, 2026, 05:30 UTC

1 35618U 97051QQ  26254.22918528  .00001008  00000-0  23682-3 0  9994
2 35618  86.3376 234.2142 0028087 177.7706 182.3631 14.53224862693500

Verfolge IRIDIUM 33 DEB in Echtzeit mit AllMySat

Download on the App Store